Tracking 31027 objects as of 19-Jul-2025
HD Live streaming from Space Station
objects crossing your sky now

SL-24 R/B

Track SL-24 R/B now!
10-day predictions


NORAD ID: 31699
Int'l Code: 2007-026B
Perigee: 510.3 km
Apogee: 986.6 km
Inclination: 97.4 °
Period: 99.6 minutes
Semi major axis: 7119 km
RCS: 6.666 m2 (large)
Launch date: June 15, 2007
Source: Commonwealth of Independent States (former USSR) (CIS)
Launch site: TYURATAM MISSILE AND SPACE COMPLEX (TTMTR)

Note: This is a ROCKET BODY
Your satellite tracking list
Your tracking list is empty




NASA's NSSDC Master Catalog

Two Line Element Set (TLE):
1 31699U 07026B   25199.79182287  .00000609  00000-0  94824-4 0  9999
2 31699  97.4303 205.2645 0334508 316.2092 219.4173 14.45222401951351
Source of the keplerian elements: AFSPC